Location: Arroyo Pernejo
(40.0500°N, 4.9167°W)
Time: 17:25:08
(UTC+00:00)

Daily predictions for brighter satellites

Satellite Brightness Start Highest point End
(mag) Time Altitude Azimuth Time Altitude Azimuth Time Altitude Azimuth
BlueWalker 3 4.2 17:31:56 10° NNW 17:32:55 11° N 17:33:55 10° NNE
Spot 4 Rocket 4.0 17:33:19 10° SSE 17:38:22 66° ENE 17:43:26 10° N
Cosmos 2098 Rocket 4.0 17:33:08 10° SSE 17:38:48 46° E 17:43:45 10° NNE
JB-3 4.2 17:35:07 10° NNE 17:38:52 85° E 17:42:38 10° S
Intercosmos 25 Rocket 4.5 17:36:44 10° SE 17:39:26 22° E 17:42:48 10° NNE
SMAP 3.0 17:35:22 10° SSE 17:39:58 69° ENE 17:44:37 10° N
ADEOS Rocket 3.8 17:32:32 10° SSE 17:40:14 82° WSW 17:48:03 10° NNW
Cosmos 2082 4.0 17:38:17 10° S 17:43:47 51° ESE 17:49:19 10° NNE
Cosmos 2297 Rocket 4.1 17:39:44 10° WSW 17:44:31 28° NW 17:49:20 10° N
Cosmos 2227 Rocket 3.0 17:39:26 10° SW 17:44:55 53° WNW 17:50:29 10° NNE
Cosmos 2084 3.4 17:42:09 10° NNW 17:45:52 47° NE 17:49:31 10° SE
Sich 1 Rocket 3.5 17:41:37 10° S 17:45:56 69° E 17:50:19 10° NNE
Nadezhda 1 Rocket 4.5 17:41:36 10° SSE 17:47:22 38° E 17:53:05 10° NNE
USA 307 3.4 17:44:29 10° WSW 17:47:29 38° NNW 17:50:58 10° NE
CZ-2C R/B 4.4 17:46:25 10° E 17:47:52 12° ENE 17:49:23 10° NE
ACS3 Solar Sail 3.6 17:49:14 10° ENE 17:49:45 10° NE 17:50:22 10° NE
Okean 2 Rocket 3.1 17:47:23 10° S 17:51:52 87° E 17:56:24 10° N
SKYMED 2 4.3 17:48:21 10° NNE 17:52:15 32° E 17:56:08 10° SSE
Cosmos 371 Rocket 3.3 17:48:19 10° S 17:52:59 58° ESE 17:57:41 10° NNE
Cosmos 1455 Rocket 4.1 17:50:04 10° SE 17:53:39 25° E 17:57:14 10° NE
Cosmos 44 Rocket 3.3 17:52:55 10° SSW 17:57:51 80° ESE 18:02:43 10° NE
SJ 16-02 3.5 17:56:50 10° WSW 18:00:23 25° WNW 18:03:58 10° N
Cosmos 1606 3.2 17:57:51 10° SSE 18:00:53 31° E 18:03:56 10° NNE
Cosmos 2237 Rocket 4.3 17:58:08 10° NW 18:03:04 31° WSW 18:08:00 10° SSW
IGS 5A 3.4 17:59:20 10° SSE 18:03:15 54° ENE 18:07:13 10° N
SL-16 R/B 2.1 17:59:32 10° NNW 18:05:14 78° ENE 18:10:54 10° SSE
Cosmos 2074 Rocket 4.0 17:59:25 10° N 18:05:44 74° E 18:12:01 10° SSE
YAOGAN 1 3.6 18:07:11 10° ESE 18:10:31 23° ENE 18:13:51 10° NNE
Cosmos 2184 Rocket 3.9 18:09:03 10° N 18:15:19 84° E 18:21:30 10° S
Cosmos 2208 Rocket 4.5 18:12:29 10° N 18:17:21 37° ENE 18:22:08 10° SE
Cosmos 2058 3.3 18:13:42 10° N 18:17:23 36° ENE 18:21:03 10° SE
Okean 1 Rocket 3.3 18:13:30 10° SSW 18:17:53 72° W 18:22:20 10° N
Landsat 7 4.2 18:14:15 10° SE 18:18:35 39° ENE 18:22:57 10° N
Cosmos 2219 3.9 18:13:48 10° SW 18:19:26 57° WNW 18:25:07 10° NNE
ISS -3.4 18:16:25 10° SSW 18:19:41 49° SE 18:20:52 32° E
NOAA 6 4.4 18:15:23 10° SE 18:20:12 41° ENE 18:25:01 10° N
CZ-4 R/B 4.4 18:16:48 10° SSE 18:20:45 58° ENE 18:24:43 10° N
Cosmos 1844 Rocket 3.6 18:18:29 10° SSE 18:23:04 26° ESE 18:24:21 24° E
Milstar 3 Cent rocket 4.4 18:22:15 10° SW 18:24:48 13° SSW 18:27:08 10° S
OAO 3 Rocket 3.9 18:20:48 10° WSW 18:25:27 47° S 18:28:22 21° ESE
Meteor 1-31 Rocket 2.7 18:22:53 10° SSE 18:26:27 51° ENE 18:30:03 10° N
Cosmos 304 Rocket 4.0 18:22:54 10° SSW 18:27:37 71° WNW 18:32:22 10° NNE
BREEZE-M DEB (TANK) 4.3 18:25:05 10° WNW 18:28:30 74° SSW 18:38:23 10° SE
Cosmos 1610 Rocket 4.4 18:24:28 10° N 18:30:36 70° E 18:36:41 10° SSE
MOS 1-B Rocket 4.0 18:26:55 10° SSE 18:33:00 56° ENE 18:38:34 10° N
Meteor 2-1 Rocket 4.4 18:28:15 10° SSE 18:33:59 53° E 18:39:43 10° NNE
Cosmos 1892 Rocket 3.4 18:32:51 10° N 18:37:08 63° E 18:41:24 10° SSE
YAOGAN 11 4.1 18:33:42 13° NNE 18:37:38 59° ESE 18:42:03 10° S
Cosmos 1486 Rocket 3.9 18:34:08 10° S 18:39:16 66° ESE 18:42:59 19° NNE
Cosmos 1503 Rocket 4.4 18:34:27 10° S 18:39:26 41° ESE 18:41:02 33° ENE
COSMO-SKYMED 1 2.8 18:36:04 10° N 18:40:24 73° WNW 18:44:43 10° SSW
Cosmos 773 Rocket 4.4 18:37:49 10° N 18:42:33 36° ENE 18:42:42 36° ENE
GEOS 3 Rocket 3.5 18:39:23 21° NE 18:42:53 90° NE 18:48:01 10° SW
CENTAUR R/B 4.4 18:40:47 10° NNW 18:46:34 21° NNE 18:48:05 20° NE
Cosmos 836 Rocket 4.4 18:41:40 10° NNW 18:46:49 62° ENE 18:51:40 11° SSE
Cosmos 1932 4.5 18:40:41 10° NNW 18:46:53 59° NE 18:50:34 25° SE
CZ-4C R/B 3.1 18:44:37 10° NW 18:52:08 89° WSW 19:01:03 10° SSE
USA 234 3.2 18:48:42 24° NE 18:52:57 83° NW 18:59:29 10° SW
ATLAS 3B R/B 2.8 18:46:26 10° SSW 18:53:33 85° ESE 18:58:59 21° NE
SL-8 Rocket 4.0 18:50:45 10° N 18:56:56 53° E 19:03:04 10° SSE
IRIDIUM 104 4.2 18:52:10 10° S 18:57:23 89° W 19:02:38 10° N
Tiangong -1.1 18:56:22 10° W 18:58:48 45° WNW 18:58:48 45° WNW
Cosmos 1943 3.1 18:55:31 10° NNW 19:01:13 72° ENE 19:04:06 30° SE
NOSS 3-1 (A) 3.9 18:56:41 10° WSW 19:01:16 45° NW 19:04:48 20° NNE
Radarsat Rocket 4.3 18:56:33 10° SSE 19:02:54 82° WSW 19:10:14 10° NNW
Lacrosse 4 Rocket 3.0 19:00:01 10° WSW 19:03:55 33° WNW 19:06:27 18° N
IRIDIUM 114 4.5 19:01:19 10° S 19:06:30 73° W 19:11:44 10° N
Cosmos 2263 Rocket 4.1 19:04:49 10° WSW 19:09:35 27° NW 19:14:23 10° N
Cosmos 1844 3.7 19:04:14 10° S 19:09:17 55° ESE 19:09:17 55° ESE
BlueWalker 3 4.3 19:09:03 10° NNW 19:09:56 14° NNW 19:09:56 14° NNW
USA 281 3.1 19:09:00 17° NNE 19:14:16 89° WNW 19:20:50 10° SSW
ATLAS 5 CENTAUR R/B 3.8 19:15:11 10° N 19:16:23 16° N 19:16:23 16° N
Cosmos 2227 4.4 19:14:41 10° SSW 19:20:15 66° WNW 19:22:44 33° N
CZ-2C R/B 3.8 19:20:27 40° WSW 19:20:30 40° W 19:23:55 10° NNW
Cosmos 1354 Rocket 4.2 19:17:53 10° S 19:22:16 60° S 19:22:16 60° S
Meteor 2-3 Rocket 3.6 19:23:07 10° N 19:28:45 86° W 19:30:03 55° S
ACS3 Solar Sail 2.4 19:34:11 44° NNE 19:34:11 44° NNE 19:38:29 10° N
YAOGAN 1 4.3 19:42:30 10° SSW 19:46:16 30° W 19:50:02 10° NW
ISS -0.1 19:53:44 10° W 19:53:48 10° W 19:53:48 10° W
USA 229 DEB 4.0 19:59:59 10° SW 20:04:48 53° W 20:04:48 53° W
USA 229 4.0 20:00:05 10° SW 20:04:54 53° W 20:04:54 53° W
Cosmos 1844 Rocket 3.7 20:01:16 10° SW 20:06:03 42° WNW 20:06:03 42° WNW
Milstar 3 4.3 19:57:33 10° SW 20:07:20 33° S 20:07:20 33° S
CENTAUR R/B 4.2 20:30:40 10° NNW 20:35:14 36° NNW 20:35:14 36° NNW
ATLAS 3B R/B 4.5 20:39:13 10° W 20:45:16 27° NW 20:46:16 26° NNW
ACS3 Solar Sail 4.3 21:19:09 15° WNW 21:19:09 15° WNW 21:20:46 10° NW
